Retour au catalogue

COSMOS 1275 DEB

ActifPO
NORAD 14228·DEBRIS·🇷🇺 Russia

Lancé Jun 4, 1981 depuis Plesetsk Cosmodrome

Loading…

Prochains Passages (prochaines 24 heures)

TLE

FraisSource: Space-Track

Époque: Sep 13, 2026, 18:21 UTC

1 14228U 81053HN  26256.76464931  .00000970  00000-0  80971-3 0  9999
2 14228  82.9680  10.0067 0090344  49.7832 101.5426 13.85586700181405

Suivez COSMOS 1275 DEB en temps réel avec AllMySat

Download on the App Store